Waarnemingen

Advertentie
Mijn weer
Cordoba Aeropuerto (AWS), Spanje (8410): temperatuur & dauwpunt: 14.10.2017 08:00:00 - 20.10.2017 08:00:00 (CEST)Cordoba Aeropuerto (AWS), Spanje (8410): windsnelheid: 14.10.2017 08:00:00 - 20.10.2017 08:00:00 (CEST)Cordoba Aeropuerto (AWS), Spanje (8410): windrichting: 14.10.2017 08:00:00 - 20.10.2017 08:00:00 (CEST)Cordoba Aeropuerto (AWS), Spanje (8410): luchtdruk: 14.10.2017 08:00:00 - 20.10.2017 08:00:00 (CEST)Cordoba Aeropuerto (AWS), Spanje (8410): zicht: 14.10.2017 08:00:00 - 20.10.2017 08:00:00 (CEST)
Datum & Tijd tt [°C] td [°C] ff [km/u] ff [kn] dd ppp [hPa] vv [km]
20.10.2017 08:00:00 14,8 13,3 4 2 ZO 1020,4 40
20.10.2017 07:00:00 14,1 12,8 0 0 N 1019,9 -
20.10.2017 06:00:00 13,7 12,3 0 0 N 1019,9 -
20.10.2017 05:00:00 13,9 12,3 0 0 N 1019,4 -
20.10.2017 04:00:00 14,5 12,4 0 0 N 1019,5 -
20.10.2017 03:00:00 15,2 12,9 4 2 ZW 1019,4 -
20.10.2017 02:00:00 14,6 12,6 4 2 W 1019,0 -
20.10.2017 01:00:00 15,0 13,0 4 2 ZW 1019,1 -
20.10.2017 00:00:00 15,5 13,0 5 3 WZW 1018,6 -
19.10.2017 23:00:00 16,1 12,8 0 0 N 1018,0 -
19.10.2017 22:00:00 17,0 11,9 0 0 N 1017,5 -
19.10.2017 21:00:00 18,1 12,2 0 0 N 1016,5 -
19.10.2017 20:00:00 18,9 12,9 4 2 W 1015,9 -
19.10.2017 19:00:00 21,6 13,5 9 5 WZW 1014,8 -
19.10.2017 18:00:00 22,4 13,8 16 9 WZW 1014,0 -
19.10.2017 17:00:00 21,6 12,1 15 8 WZW 1013,8 50
19.10.2017 16:00:00 20,9 11,6 15 8 ZW 1013,9 -
19.10.2017 15:00:00 21,3 14,0 18 10 WZW 1014,2 -
19.10.2017 14:00:00 21,2 13,4 8 4 ZW 1014,7 50
19.10.2017 13:00:00 20,7 13,0 5 3 ZZO 1014,9 -
19.10.2017 12:00:00 19,7 12,9 5 3 O 1014,9 -
19.10.2017 11:00:00 17,2 14,0 5 3 O 1014,5 40
19.10.2017 10:00:00 15,3 13,5 11 6 O 1014,0 -
19.10.2017 09:00:00 14,7 13,2 15 8 ONO 1013,1 -
19.10.2017 08:00:00 14,8 13,5 5 3 O 1012,6 40
19.10.2017 07:00:00 15,0 13,2 9 5 ONO 1012,2 -
19.10.2017 06:00:00 15,5 14,4 2 1 O 1011,7 -
19.10.2017 05:00:00 15,6 14,3 4 2 NNO 1011,5 -
19.10.2017 04:00:00 16,1 14,5 0 0 N 1012,3 -
19.10.2017 03:00:00 16,2 14,4 5 3 W 1012,8 -
19.10.2017 02:00:00 16,8 15,1 8 4 W 1012,9 -
19.10.2017 01:00:00 17,0 15,5 9 5 W 1013,4 -
19.10.2017 00:00:00 17,0 15,3 11 6 WZW 1013,8 -
18.10.2017 23:00:00 17,5 15,7 13 7 ZW 1013,9 -
18.10.2017 22:00:00 17,2 14,7 4 2 ZW 1013,6 -
18.10.2017 21:00:00 17,3 14,2 8 4 ZW 1013,5 -
18.10.2017 20:00:00 18,4 13,9 8 4 ZW 1012,9 20
18.10.2017 19:00:00 19,2 13,8 8 4 WZW 1013,0 -
18.10.2017 18:00:00 20,4 13,5 21 11 WZW 1012,8 -
18.10.2017 17:00:00 20,1 12,8 15 8 WZW 1012,9 30
18.10.2017 16:00:00 19,1 13,5 18 10 W 1013,6 -
18.10.2017 15:00:00 19,8 14,6 9 5 ZW 1013,7 -
18.10.2017 14:00:00 18,7 14,7 11 6 WZW 1014,5 20
18.10.2017 13:00:00 18,1 15,2 18 10 W 1015,2 -
18.10.2017 12:00:00 17,3 15,5 13 7 WZW 1015,2 -
18.10.2017 11:00:00 16,2 14,7 15 8 W 1015,6 10
18.10.2017 10:00:00 16,2 14,7 11 6 ZZW 1014,8 -
18.10.2017 09:00:00 16,7 15,6 11 6 WZW 1014,7 -
18.10.2017 08:00:00 16,9 15,4 9 5 ZW 1014,1 15
18.10.2017 07:00:00 - - - - - - -
18.10.2017 06:00:00 - - - - - - -
18.10.2017 05:00:00 - - - - - - -
18.10.2017 04:00:00 - - - - - - -
18.10.2017 03:00:00 - - - - - - -
18.10.2017 02:00:00 - - - - - - -
18.10.2017 01:00:00 18,3 17,0 8 4 W 1017,9 -
18.10.2017 00:00:00 18,0 16,7 5 3 OZO 1017,7 -
17.10.2017 23:00:00 17,9 16,6 4 2 Z 1018,9 -
17.10.2017 22:00:00 19,8 15,0 16 9 NW 1018,7 -
17.10.2017 21:00:00 20,9 16,1 4 2 OZO 1017,8 -
17.10.2017 20:00:00 21,8 16,3 5 3 NNO 1017,7 20
17.10.2017 19:00:00 23,3 15,4 5 3 O 1017,8 -
17.10.2017 18:00:00 22,8 16,1 21 11 NW 1018,1 -
17.10.2017 17:00:00 27,0 12,2 8 4 Z 1017,6 15
17.10.2017 16:00:00 26,5 12,5 8 4 Z 1018,3 -
17.10.2017 15:00:00 26,3 12,6 15 8 ZZW 1019,5 -
17.10.2017 14:00:00 26,1 12,3 21 11 Z 1019,9 -
17.10.2017 13:00:00 25,3 12,2 16 9 Z 1020,1 -
17.10.2017 12:00:00 23,9 10,9 4 2 ONO 1021,2 -
17.10.2017 11:00:00 21,3 9,5 13 7 NO 1021,9 25
17.10.2017 10:00:00 20,0 9,5 13 7 ONO 1021,4 -
17.10.2017 09:00:00 18,8 9,6 5 3 ONO 1021,1 -
17.10.2017 08:00:00 18,8 9,3 15 8 ONO 1020,8 25
17.10.2017 07:00:00 19,2 9,4 13 7 ONO 1020,4 -
17.10.2017 06:00:00 19,3 10,0 16 9 O 1020,6 -
17.10.2017 05:00:00 20,3 11,0 8 4 NO 1020,9 -
17.10.2017 04:00:00 18,6 10,9 4 2 NO 1021,6 -
17.10.2017 03:00:00 18,5 10,8 0 0 N 1022,3 -
17.10.2017 02:00:00 18,3 10,1 0 0 N 1022,3 -
17.10.2017 01:00:00 18,8 9,1 2 1 NNW 1022,8 -
17.10.2017 00:00:00 19,5 9,9 0 0 N 1022,7 -
16.10.2017 23:00:00 21,6 9,5 2 1 Z 1022,4 -
16.10.2017 22:00:00 22,8 9,2 5 3 ZW 1022,0 -
16.10.2017 21:00:00 24,3 9,1 4 2 NNO 1021,5 -
16.10.2017 20:00:00 26,2 7,2 11 6 Z 1020,8 30
16.10.2017 19:00:00 29,2 6,5 11 6 Z 1020,3 -
16.10.2017 18:00:00 31,5 5,1 13 7 Z 1020,1 -
16.10.2017 17:00:00 32,1 5,6 15 8 Z 1020,3 -
16.10.2017 16:00:00 32,2 4,9 15 8 ZZO 1020,6 -
16.10.2017 15:00:00 31,1 5,5 4 2 O 1021,4 -
16.10.2017 14:00:00 29,3 5,5 4 2 O 1022,6 30
16.10.2017 13:00:00 27,3 6,1 8 4 O 1023,3 -
16.10.2017 12:00:00 24,8 6,5 13 7 O 1023,7 -
16.10.2017 11:00:00 21,4 5,3 9 5 O 1024,0 40
16.10.2017 10:00:00 18,2 5,7 9 5 O 1023,7 -
16.10.2017 09:00:00 14,8 5,8 8 4 OZO 1023,1 -
16.10.2017 08:00:00 14,1 5,2 8 4 ONO 1022,7 40
16.10.2017 07:00:00 14,8 6,1 11 6 ONO 1022,2 -
16.10.2017 06:00:00 15,7 9,0 0 0 N 1022,1 -
16.10.2017 05:00:00 17,3 9,8 0 0 N 1022,1 -
16.10.2017 04:00:00 18,3 7,7 4 2 WNW 1022,3 -
16.10.2017 03:00:00 20,3 5,6 2 1 W 1022,0 -
16.10.2017 02:00:00 19,6 3,7 2 1 ZW 1022,1 -
16.10.2017 01:00:00 20,7 3,8 9 5 W 1021,9 -
16.10.2017 00:00:00 23,2 4,2 8 4 ZW 1021,7 -
15.10.2017 23:00:00 24,5 4,3 4 2 WNW 1021,3 -
15.10.2017 22:00:00 27,1 4,8 8 4 ZW 1020,8 -
15.10.2017 21:00:00 28,8 5,0 13 7 ZW 1020,2 -
15.10.2017 20:00:00 28,1 3,7 8 4 WNW 1020,0 20
15.10.2017 19:00:00 31,5 4,5 18 10 ZZW 1019,5 -
15.10.2017 18:00:00 33,6 4,3 21 11 Z 1019,3 -
15.10.2017 17:00:00 34,9 4,4 18 10 Z 1019,3 40
15.10.2017 16:00:00 35,1 4,6 4 2 ZO 1019,8 -
15.10.2017 15:00:00 33,1 3,9 4 2 ONO 1020,8 -
15.10.2017 14:00:00 31,1 5,5 8 4 ONO 1022,0 30
15.10.2017 13:00:00 29,2 6,5 11 6 O 1023,0 -
15.10.2017 12:00:00 26,1 6,2 13 7 O 1023,7 -
15.10.2017 11:00:00 23,8 6,1 13 7 O 1024,0 30
15.10.2017 10:00:00 20,1 7,5 8 4 ONO 1023,9 -
15.10.2017 09:00:00 15,5 7,8 9 5 O 1023,9 -
15.10.2017 08:00:00 15,7 6,7 0 0 N 1023,6 25
15.10.2017 07:00:00 16,0 6,7 0 0 N 1023,4 -
15.10.2017 06:00:00 17,3 7,6 5 3 ONO 1022,9 -
15.10.2017 05:00:00 17,9 7,2 0 0 N 1022,8 -
15.10.2017 04:00:00 18,5 7,3 0 0 N 1023,0 -
15.10.2017 03:00:00 19,9 7,6 0 0 N 1022,9 -
15.10.2017 02:00:00 21,4 6,9 5 3 NO 1022,9 -
15.10.2017 01:00:00 22,8 7,3 5 3 N 1022,8 -
15.10.2017 00:00:00 23,7 7,3 5 3 ZZO 1022,8 -
14.10.2017 23:00:00 25,0 7,2 0 0 N 1022,4 -
14.10.2017 22:00:00 26,6 7,1 4 2 ZZO 1022,0 -
14.10.2017 21:00:00 29,5 4,9 0 0 N 1021,7 -
14.10.2017 20:00:00 28,8 6,1 2 1 W 1021,2 20
14.10.2017 19:00:00 31,6 5,5 4 2 W 1020,8 -
14.10.2017 18:00:00 34,0 4,4 2 1 W 1020,6 -
14.10.2017 17:00:00 34,0 4,6 0 0 N 1021,0 20
14.10.2017 16:00:00 34,2 4,8 0 0 N 1021,3 -
14.10.2017 15:00:00 33,1 5,6 4 2 ONO 1021,8 -
14.10.2017 14:00:00 31,0 5,4 9 5 ONO 1022,8 25
14.10.2017 13:00:00 28,6 6,0 13 7 ONO 1023,8 -
14.10.2017 12:00:00 25,6 5,7 15 8 O 1024,4 -
14.10.2017 11:00:00 21,5 6,2 15 8 O 1024,4 20
14.10.2017 10:00:00 19,7 7,1 4 2 O 1024,3 -
14.10.2017 09:00:00 17,0 6,5 4 2 ONO 1024,0 -
14.10.2017 08:00:00 16,2 6,3 4 2 O 1023,6 25

tt = temperatuur
td = dauwpunt
ff = windsnelheid
dd = windrichting
ppp = luchtdruk
vv = zicht

Weerstations in de omgeving